Location: Buckeye Ditch
(40.9104°N, 122.9517°W)
Time: 12:02:36
(UTC+00:00)

Explorer 7 - Pass Details

Date: 26 May 2025
Orbit: 445 x 571 km, 50.3° (Epoch: 22 June)

Event Time Altitude Azimuth Distance (km) Brightness Sun altitude
Rises 11:32:40 0° 300° (WNW) 2,523 10.0 -11.9°
Reaches altitude 10° 11:35:11 10° 317° (NW) 1,668 9.3 -11.6°
Maximum altitude 11:38:07 21° 8° (N) 1,164 9.1 -11.2°
Drops below altitude 10° 11:41:09 10° 59° (ENE) 1,728 10.9 -10.7°
Sets 11:43:49 0° 76° (ENE) 2,642 11.6 -10.4°
